DeKalb, IL

6:55 PM CDT on April 26, 2017 (GMT -0500)
De Kalb Taylor Municipal

Weather History for KDKB - June, 2013

Change the Weather History Date:

Monday, June 3, 2013

  Actual Average (KARR) Record (KARR)
Temperature  
Mean Temperature 55 °F -  
Max Temperature 68 °F 72 °F 90 °F (2011)
Min Temperature 42 °F 52 °F 40 °F (2009)
Degree Days  
Heating Degree Days 10    
Growing Degree Days 5 (Base 50)    
Moisture  
Dew Point 47 °F    
Average Humidity 72    
Maximum Humidity 92    
Minimum Humidity 48    
Precipitation  
Precipitation 0.01 in - - ()
Sea Level Pressure  
Sea Level Pressure 30.08 in    
Wind  
Wind Speed 4 mph (SSE)    
Max Wind Speed 8 mph    
Max Gust Speed -    
Visibility 7 miles    
Events Fog    
Averages and records for this station are not official NWS values.
T = Trace of Precipitation, MM = Missing Value Source: NWS Daily Summary

Daily Weather History Graph

Daily Weather History Graph

Search for Another Location

Airport or City:

Trip Planner

Search our weather history database for the weather conditions in past years. The results will help you decide how hot, cold, wet, or windy it might be!

Date:

Astronomy

Jun. 03, 2013 Rise Set
Actual Time 5:21 AM CDT 8:25 PM CDT
Civil Twilight 4:47 AM CDT 8:59 PM CDT
Nautical Twilight 4:04 AM CDT 9:42 PM CDT
Astronomical Twilight 3:13 AM CDT 10:33 PM CDT
Moon 2:22 AM CDT (6/3) 3:52 PM CDT (6/3)
Length of Visible Light 16h 11m
Length of Day
15h 04m
Waning Crescent, 22% of the Moon is Illuminated
Jun 3
Waning Crescent
Jun 8
New
Jun 16
First Quarter
Jun 23
Full
Jun 29
Last Quarter

Hourly Weather History & Observations

Time (CDT) Temp. Windchill Dew Point Humidity Pressure Visibility Wind Dir Wind Speed Gust Speed Precip Events Conditions
12:15 AM 46.4 °F 42.9 °F 43.9 °F 91% 30.05 in 5.0 mi South 6.9 mph - N/A   Clear
12:35 AM 47.3 °F - 44.8 °F 91% 30.05 in 5.0 mi South 6.9 mph - N/A   Clear
12:55 AM 46.8 °F - 44.2 °F 91% 30.06 in 4.0 mi South 5.8 mph - N/A   Clear
1:15 AM 46.2 °F 43.3 °F 43.7 °F 91% 30.06 in 4.0 mi South 5.8 mph - N/A   Clear
1:35 AM 46.0 °F 42.5 °F 43.7 °F 92% 30.06 in 3.0 mi South 6.9 mph - N/A   Clear
1:55 AM 45.7 °F 42.0 °F 43.2 °F 91% 30.06 in 2.5 mi South 6.9 mph - N/A   Clear
2:15 AM 46.2 °F 42.7 °F 43.7 °F 91% 30.06 in 0.2 mi South 6.9 mph - N/A Fog Fog
2:35 AM 45.1 °F 42.0 °F 42.8 °F 91% 30.06 in 0.2 mi South 5.8 mph - N/A Fog Fog
2:55 AM 44.8 °F 43.3 °F 42.4 °F 91% 30.06 in 0.2 mi South 3.5 mph - N/A Fog Fog
3:15 AM 45.7 °F - 43.2 °F 91% 30.06 in 0.2 mi Calm Calm - N/A Fog Fog
3:35 AM 46.6 °F - 44.1 °F 91% 30.06 in 0.2 mi Calm Calm - N/A Fog Fog
3:55 AM 45.5 °F - 43.0 °F 91% 30.06 in 0.2 mi Calm Calm - 0.01 in Fog Fog
4:15 AM 44.6 °F - 42.1 °F 91% 30.06 in 0.2 mi Calm Calm - N/A Fog Fog
4:35 AM 44.2 °F - 41.7 °F 91% 30.06 in 0.2 mi Calm Calm - N/A Fog Fog
4:55 AM - - - N/A% 30.06 in 0.2 mi Calm Calm - N/A Fog Fog
5:15 AM 42.8 °F - 40.3 °F 91% 30.07 in 0.2 mi Calm Calm - N/A Fog Fog
5:35 AM 43.2 °F - 40.8 °F 91% 30.08 in 0.2 mi Calm Calm - N/A Fog Fog
5:55 AM 42.8 °F - 40.3 °F 91% 30.07 in 0.2 mi Calm Calm - N/A Fog Fog
6:15 AM 43.7 °F - 41.2 °F 91% 30.07 in 0.2 mi Calm Calm - N/A Fog Fog
6:35 AM 45.0 °F - 42.4 °F 91% 30.08 in 0.5 mi Calm Calm - N/A Fog Fog
7:15 AM 49.5 °F - 46.9 °F 91% 30.09 in 4.0 mi Calm Calm - N/A   Clear
7:35 AM 51.1 °F - 48.4 °F 90% 30.09 in 5.0 mi Calm Calm - N/A   Clear
8:15 AM 52.2 °F - 49.5 °F 91% 30.11 in 10.0 mi Calm Calm - N/A   Clear
8:35 AM 55.6 °F - 52.9 °F 91% 30.11 in 10.0 mi Calm Calm - N/A   Clear
8:55 AM 58.5 °F - 51.4 °F 77% 30.12 in 10.0 mi WSW 3.5 mph - N/A   Clear
9:15 AM 59.0 °F - 50.9 °F 74% 30.12 in 10.0 mi SW 4.6 mph - N/A   Clear
9:35 AM 59.5 °F - 50.0 °F 71% 30.12 in 10.0 mi Calm Calm - N/A   Clear
9:55 AM 59.4 °F - 49.3 °F 69% 30.12 in 10.0 mi Calm Calm - N/A   Mostly Cloudy
10:15 AM 60.1 °F - 48.6 °F 66% 30.12 in 10.0 mi Calm Calm - N/A   Mostly Cloudy
10:35 AM 60.8 °F - 50.2 °F 68% 30.12 in 10.0 mi SSE 3.5 mph - N/A   Scattered Clouds
10:55 AM 62.2 °F - 50.0 °F 64% 30.11 in 10.0 mi South 4.6 mph - N/A   Scattered Clouds
11:15 AM 61.5 °F - 48.6 °F 62% 30.11 in 10.0 mi Calm Calm - N/A   Mostly Cloudy
11:35 AM 61.2 °F - 49.1 °F 65% 30.10 in 10.0 mi Calm Calm - N/A   Scattered Clouds
11:55 AM 63.3 °F - 48.7 °F 59% 30.10 in 10.0 mi Calm Calm - N/A   Scattered Clouds
12:15 PM 62.4 °F - 47.5 °F 58% 30.10 in 10.0 mi NW 3.5 mph - N/A   Mostly Cloudy
12:35 PM 62.8 °F - 48.7 °F 60% 30.09 in 10.0 mi South 3.5 mph - N/A   Mostly Cloudy
12:55 PM 63.1 °F - 48.6 °F 59% 30.09 in 10.0 mi NW 4.6 mph - N/A   Scattered Clouds
1:15 PM 65.3 °F - 49.8 °F 57% 30.08 in 10.0 mi Calm Calm - N/A   Scattered Clouds
1:35 PM 66.0 °F - 48.7 °F 54% 30.07 in 10.0 mi Calm Calm - N/A   Scattered Clouds
1:55 PM 66.2 °F - 49.3 °F 54% 30.07 in 10.0 mi Calm Calm - N/A   Scattered Clouds
2:15 PM 65.5 °F - 47.3 °F 52% 30.07 in 10.0 mi Calm Calm - N/A   Scattered Clouds
2:35 PM 65.7 °F - 46.6 °F 50% 30.06 in 10.0 mi Calm Calm - N/A   Scattered Clouds
2:55 PM 66.6 °F - 48.4 °F 52% 30.06 in 10.0 mi East 4.6 mph - N/A   Mostly Cloudy
3:15 PM 67.3 °F - 49.6 °F 53% 30.06 in 10.0 mi East 4.6 mph - N/A   Scattered Clouds
3:35 PM 65.7 °F - 49.1 °F 55% 30.05 in 10.0 mi ENE 3.5 mph - N/A   Scattered Clouds
3:55 PM 67.1 °F - 49.1 °F 52% 30.05 in 10.0 mi Calm Calm - N/A   Clear
4:15 PM 67.5 °F - 49.5 °F 52% 30.04 in 10.0 mi SSW 3.5 mph - N/A   Clear
4:55 PM 67.6 °F - 48.7 °F 51% 30.04 in 10.0 mi Calm Calm - N/A   Clear
5:15 PM 68.0 °F - 48.7 °F 50% 30.04 in 10.0 mi Calm Calm - N/A   Scattered Clouds
5:55 PM 65.8 °F - 45.9 °F 48% 30.04 in 10.0 mi Calm Calm - N/A   Scattered Clouds
6:15 PM 67.3 °F - 48.6 °F 51% 30.04 in 10.0 mi SSE 4.6 mph - N/A   Clear
6:35 PM 66.7 °F - 49.1 °F 53% 30.04 in 10.0 mi SE 6.9 mph - N/A   Clear
6:55 PM 66.2 °F - 48.9 °F 54% 30.05 in 10.0 mi Calm Calm - N/A   Clear
7:15 PM 65.1 °F - 49.1 °F 56% 30.05 in 10.0 mi South 4.6 mph - N/A   Clear
7:35 PM 64.2 °F - 49.8 °F 59% 30.06 in 10.0 mi South 3.5 mph - N/A   Clear
7:55 PM 62.6 °F - 50.4 °F 64% 30.07 in 10.0 mi South 4.6 mph - N/A   Clear
8:15 PM 61.7 °F - 51.6 °F 69% 30.07 in 10.0 mi South 4.6 mph - N/A   Clear
8:35 PM 59.0 °F - 51.6 °F 76% 30.07 in 10.0 mi SSE 6.9 mph - N/A   Clear
8:55 PM 58.3 °F - 51.1 °F 77% 30.07 in 10.0 mi South 5.8 mph - N/A   Clear
9:35 PM 58.3 °F - 49.3 °F 72% 30.08 in 10.0 mi ESE 6.9 mph - N/A   Clear
9:55 PM 57.7 °F - 48.4 °F 71% 30.09 in 10.0 mi SE 8.1 mph - N/A   Clear
10:15 PM 58.1 °F - 45.5 °F 63% 30.09 in 10.0 mi SE 8.1 mph - N/A   Clear
10:35 PM 56.3 °F - 44.4 °F 64% 30.09 in 10.0 mi SE 8.1 mph - N/A   Clear
10:55 PM 56.1 °F - 43.9 °F 64% 30.09 in 10.0 mi SE 6.9 mph - N/A   Clear
11:15 PM 55.4 °F - 43.9 °F 65% 30.09 in 10.0 mi SE 5.8 mph - N/A   Clear
11:35 PM 54.5 °F - 44.1 °F 68% 30.11 in 10.0 mi SE 5.8 mph - N/A   Clear
11:55 PM 54.1 °F - 44.6 °F 70% 30.11 in 10.0 mi SE 4.6 mph - N/A   Clear